Regional Weather Roundup
Issued by NWS Charleston, WV

Home | Current Version | Previous Version | Graphics & Text | Print | Product List | Glossary On
Versions: 1 2 3 4 5 6 7 8 9 10 11 12 13 14 15 16 17 18 19 20 21 22 23 24 25 26 27 28 29 30 31 32 33 34 35 36 37 38 39 40 41 42 43 44 45 46 47 48 49 50
096
ASUS41 KRLX 270610
RWRRLX
West Virginia Regional Weather Roundup
National Weather Service Charleston WV
200 AM EDT MON MAR 27 2017

Note: "fair" indicates few or no clouds below 12,000 feet with no
significant weather and/or obstructions to visibility.

WVZ003-270700-
Northern Panhandle of West Virginia

CITY           SKY/WX    TMP DP  RH WIND       PRES   REMARKS
WHEELING       CLOUDY    55  54  96 W5        29.96R
$$

WVZ009-270700-
Northwest West Virginia

CITY           SKY/WX    TMP DP  RH WIND       PRES   REMARKS
PARKERSBURG    MOCLDY    57  55  93 W3        30.00R
$$

WVZ006-270700-
Western West Virginia

CITY           SKY/WX    TMP DP  RH WIND       PRES   REMARKS
HUNTINGTON     CLOUDY    59  55  87 SW5       29.98S
$$

WVZ015-270700-
West Central West Virginia

CITY           SKY/WX    TMP DP  RH WIND       PRES   REMARKS
CHARLESTON     CLOUDY    59  55  87 CALM      29.99F
$$

WVZ022-031-270700-
North Central West Virginia

CITY           SKY/WX    TMP DP  RH WIND       PRES   REMARKS
CLARKSBURG     CLOUDY    56  54  93 S5        29.99F
MORGANTOWN     CLOUDY    57  53  86 S6        29.99F
$$

WVZ025-035-042-045-270700-
Southern West Virginia

CITY           SKY/WX    TMP DP  RH WIND       PRES   REMARKS
BECKLEY        LGT RAIN  57  52  83 S13       30.07S
LOGAN          MOCLDY    59  55  88 CALM      30.02F
BLUEFIELD      NOT AVBL
LEWISBURG      CLOUDY    56  52  86 CALM      30.07F
$$

WVZ047-270700-
Northern Mountains of West Virginia

CITY           SKY/WX    TMP DP  RH WIND       PRES   REMARKS
ELKINS         LGT RAIN  54  52  93 E3        30.04R
$$

WVZ052-270700-
Eastern Panhandle of West Virginia

CITY           SKY/WX    TMP DP  RH WIND       PRES   REMARKS
MARTINSBURG    CLOUDY    46  44  93 CALM      30.12F FOG
PETERSBURG     CLOUDY    48  47  95 NW3       30.09F
$$




USA.gov is the U.S. government's official web portal to all federal, state and local government web resources and services.